Hourly Data Report for September 22, 2017

All times are specified in Local Standard Time (LST). Add 1 hour to adjust for Daylight Saving Time where and when it is observed.

POINT LEPREAU CS
NEW BRUNSWICK

45°04'23.040" N
66°26'57.090" W
6.00 m
8104201
71699
WPE

Download Data

Hourly Data (September 2017)
Hourly Data Report for September 22, 2017
Temp Definition
°C
Dew Point Temp Definition
°C
Rel Hum Definition
%
Wind Dir Definition
10's deg

Wind Spd Definition
km/h
Visibility Definition
km
Stn Press Definition
kPa
Hmdx Definition


Wind Chill Definition


Weather Definition


TIME
00:00 11.8 8.4 79 4 10   102.10     LegendNANA
01:00 11.2 8.6 84 3 10   102.12     LegendNANA
02:00 10.6 8.6 88 3 9   102.09     LegendNANA
03:00 10.7 9.3 91 3 12   102.04     LegendNANA
04:00 10.6 9.2 91 2 12   102.05     LegendNANA
05:00 10.9 9.4 91 4 12   102.02     LegendNANA
06:00 10.0 9.1 94 2 10   102.04     LegendNANA
07:00 11.4 9.8 90 3 13   102.06     LegendNANA
08:00 13.4 10.8 84 4 15   102.06     LegendNANA
09:00 16.4 11.1 71 5 17   102.07     LegendNANA
10:00 17.2 10.7 66 6 17   102.07     LegendNANA
11:00 18.1 11.5 66 8 18   102.05     LegendNANA
12:00 18.0 11.3 65 7 20   102.02     LegendNANA
13:00 18.1 10.6 62 7 19   101.98     LegendNANA
14:00 17.7 11.0 65 6 15   101.91     LegendNANA
15:00 19.7 7.3 45 6 14   101.87     LegendNANA
16:00 20.0 2.5 31 6 13   101.83     LegendNANA
17:00 17.8 7.2 50 6 13   101.83     LegendNANA
18:00 17.5 6.8 49 5 12   101.80     LegendNANA
19:00 17.8 7.3 50 5 11   101.79     LegendNANA
20:00 17.3 7.5 52 5 8   101.76     LegendNANA
21:00 16.4 9.3 63 4 7   101.76     LegendNANA
22:00 15.9 10.1 68 6 7   101.75     LegendNANA
23:00 16.0 10.6 71 5 8   101.78     LegendNANA

Notes on Data Quality.

Legend

  • E = Estimated
  • M = Missing
  • NA = Not Available
  • ‡ = Partner data that is not subject to review by the National Climate Archives
Date modified: